Regional Weather Roundup
Issued by NWS

Home | Current Version | Previous Version | Graphics & Text | Print | Product List | Glossary On
Versions: 1 2 3 4 5 6 7 8 9 10 11 12 13 14 15 16 17 18 19 20 21 22 23 24 25 26 27 28 29 30 31 32 33 34 35 36 37 38 39 40 41 42 43 44 45 46 47 48 49 50
000
ASUS43 KMKX 042000
RWRWI

WISCONSIN REGIONAL WEATHER ROUNDUP
NATIONAL WEATHER SERVICE MILWAUKEE/SULLIVAN WI
300 PM CDT SAT JUL 04 2015

NOTE: "FAIR" INDICATES FEW OR NO CLOUDS BELOW 12,000 FEET WITH NO
SIGNIFICANT WEATHER AND/OR OBSTRUCTIONS TO VISIBILITY.

WIZ001-002-006>008-014>016-023>028-042100-
NORTHWEST WISCONSIN

CITY           SKY/WX    TMP DP  RH WIND       PRES   REMARKS
SUPERIOR ARPT  SUNNY     67  61  79 E8        29.96S
ASHLAND        SUNNY     74  65  73 N10       29.96F
HAYWARD        MOSUNNY   81  55  40 S8        29.96S HX  81
SIREN          MOSUNNY   83  57  41 S7        29.94S HX  82
CUMBERLAND     MOSUNNY   79  57  47 S8        29.96S HX  80
RICE LAKE      PTSUNNY   82  57  42 S5        29.97S HAZE    HX  81
CHETEK         NOT AVBL
LADYSMITH      SUNNY     82  54  39 S5        29.98S HX  81
EAU CLAIRE     NOT AVBL
MENOMONIE      MOSUNNY   81  63  53 S6        29.95S HAZE    HX  83
NEW RICHMOND   MOSUNNY   81  63  54 SW7       29.95S HAZE    HX  82
OSCEOLA        MOSUNNY   82  61  48 S6        29.96F HAZE    HX  83
$$

WIZ003>005-009-010-017-018-042100-
NORTH CENTRAL WISCONSIN

CITY           SKY/WX    TMP DP  RH WIND       PRES   REMARKS
MANITOWISH WTR PTSUNNY   78  58  50 S5        29.99S
ARBOR VITAE    PTSUNNY   77  54  44 CALM      30.00R
WOODRUFF       PTSUNNY   77  54  44 CALM      30.00R
RHINELANDER    PTSUNNY   82  49  31 VRB6      30.00R HX  81
EAGLE RIVER    PTSUNNY   77  52  41 CALM      29.99R
LAND O LAKES   PTSUNNY   78  53  41 CALM      30.00S
PHILLIPS       MOSUNNY   79  58  47 SW3       29.97S HX  80
TOMAHAWK       MOSUNNY   80  53  38 SW3       29.99S HX  80
MEDFORD        MOSUNNY   80  59  49 SW3       29.98S HX  80
MERRILL        SUNNY     81  55  41 CALM      29.98S HX  80
$$

WIZ029-030-035-036-043>047-042100-
CENTRAL WISCONSIN

CITY           SKY/WX    TMP DP  RH WIND       PRES   REMARKS
WAUSAU         SUNNY     83  57  41 SW8       29.95F HX  82
MOSINEE        MOSUNNY   81  59  47 SW5       29.99S HX  81
MARSHFIELD     MOSUNNY   81  60  48 CALM      29.97S HAZE    HX  82
STEVENS POINT  MOSUNNY   78  59  52 W3        29.97F HX  80
WAUPACA        MOSUNNY   83  62  48 SW5       29.97S HX  84
WAUTOMA        NOT AVBL
WISC RAPIDS    SUNNY     82  60  47 SW6       29.98S HX  82
CAMP DOUGLAS   NOT AVBL
$$

WIZ011>013-019>022-031-037>040-048>050-042100-
NORTHEAST WISCONSIN

CITY           SKY/WX    TMP DP  RH WIND       PRES   REMARKS
ANTIGO         MOSUNNY   77  61  58 SE6       29.99S
SHAWANO        MOSUNNY   81  62  52 NE5       29.96F HX  82
OCONTO         MOSUNNY   77  64  64 SE6       29.98R
STURGEON BAY   MOSUNNY   72  61  68 E8        30.02R
GREEN BAY      MOSUNNY   80  64  58 CALM      29.96F HX  82
MANITOWOC      NOT AVBL
APPLETON       PTSUNNY   79  61  53 SW5       29.98S HX  80
CLINTONVILLE   PTSUNNY   81  61  50 S5        29.96F HX  81
OSHKOSH        MOSUNNY   81  61  50 VRB3      29.97S HX  82
$$

WIZ032>034-041-042-053>061-042100-
SOUTHWEST WISCONSIN

CITY           SKY/WX    TMP DP  RH WIND       PRES   REMARKS
LA CROSSE      SUNNY     83  63  50 S9        29.95F HX  84
SPARTA         MOSUNNY   82  59  45 W6        29.97S HX  82
VIROQUA        SUNNY     80  59  50 SW6       30.00S HX  80
BOSCOBEL       SUNNY     83  59  44 SW7       29.98S HX  83
PRAIRIE DU CHI SUNNY     80  60  48 SW6       29.97F HX  81
PLATTEVILLE    SUNNY     80  59  48 SW8       30.00S HX  80
$$

WIZ056-057-062-063-064-067-068-042100-
SOUTH CENTRAL WISCONSIN

CITY           SKY/WX    TMP DP  RH WIND       PRES   REMARKS
REEDSBURG      SUNNY     80  61  52 S6        29.97F HX  81
BARABOO/DELLS  SUNNY     80  58  47 SW7       29.98F HX  81
LONE ROCK      NOT AVBL
MINERAL POINT  SUNNY     81  55  41 SW10      30.01S HX  80
MADISON        MOSUNNY   81  59  47 CALM      29.98F HX  81
MIDDLETON      MOSUNNY   82  57  43 SW9       29.99F HX  81
WATERTOWN      MOSUNNY   79  62  55 S8        29.99S HX  80
MONROE         PTSUNNY   79  61  53 SW7       30.00S HX  80
JANESVILLE     MOSUNNY   81  61  50 W8        29.99S HX  81
$$

WIZ051-052-058>065-066-070>072-042100-
SOUTHEAST WISCONSIN

CITY           SKY/WX    TMP DP  RH WIND       PRES   REMARKS
MILWAUKEE      MOSUNNY   79  59  50 SE14      29.99S HX  80
WAUKESHA       PTSUNNY   79  59  50 SW6       30.00S HX  80
MILWAUKEE/TIMM CLOUDY    81  55  41 SW7       29.99S HX  80
RACINE         SUNNY     77  58  51 S12       30.01S
BURLINGTON     SUNNY     78  59  52 SW3       30.00S
KENOSHA        MOSUNNY   80  60  50 NW3       30.00S HX  81
FOND DU LAC    MOSUNNY   81  62  52 SW7       29.98S HX  82
SHEBOYGAN      PTSUNNY   80  64  58 SE7       29.97F HX  82
WEST BEND      PTSUNNY   79  55  44 CALM      29.98F
JUNEAU         MOSUNNY   78  61  55 CALM      30.00S
$$

LSZ147-162-042100-
LAKE SUPERIOR

STATION/POSITION TIME  TEMP    WIND        PRES    WAVE
                       AIR SEA DIR/SP/G            HT/PER
                 (UTC) (F)     (DEG/KT/KT) (MB)    (FT/S)
W MID LAKE BUOY  1850   43 39   50/  6/  8 1015.6F   0
DEVILS ISLAND    1900   58      70/ 10/ 12 1015.3S
SAXON HARBOR     1900   64        CALM     1014.6F
$$

LMZ867-665-643>646-042100-
LAKE MICHIGAN

STATION/POSITION TIME  TEMP    WIND        PRES    WAVE
                       AIR SEA DIR/SP/G            HT/PER
                 (UTC) (F)     (DEG/KT/KT) (MB)    (FT/S)
CHAMBERS ISLAND  1900   70      10/  5/  6 1015.6S
S GREEN BAY BUOY 1900   69 70   40/  8/ 12 1016.4
N MID LAKE BUOY  1850   58 45  130/  2/  2 1015.7R   0
NORTHPORT PIER   1900   63     140/  5/  6 1015.6S
SISTER BAY       1914          120/  4/  9   N/A
ALGOMA LAKESHORE 1811           70/  5/  5   N/A
KEWAUNEE LAKESHO 1900   63      60/  3/  6 1015.1S
SHEBOYGAN LAKESH 1900   64     130/  9/  9 1015.4F
PORT WASHINGTON  1900   72     170/  5/  7 1015.9S
ATWATER BUOY     1900   65 62  160/  8/ 10 1016.9S
MILWAUKEE LAKESH 1900   66     140/ 10/ 12   N/A
KENOSHA   LAKESH 1900   67     170/  7/  9 1015.6S
$$

TC  - TEMPERATURE IN CELSIUS
VSB - VISIBILITY IN STATUTE MILES
WCI - WIND CHILL INDEX
HX  - HEAT INDEX



USA.gov is the U.S. government's official web portal to all federal, state and local government web resources and services.